| time (UTC) | temp F | wind direction | speed MPH | gust MPH | rain 1hr in | rain 24hr in | rain mn in | humidity % | barometer mb |
| 20260901063519 | 87 | 0 | 0.0 | 1.0 | 0.00 | 0.00 | 0.00 | 54 | 1015.7 |
| 20260901063039 | 87 | 0 | 0.0 | 2.0 | 0.00 | 0.00 | 0.00 | 53 | 1015.7 |
| 20260901062520 | 87 | 0 | 0.0 | 2.0 | 0.00 | 0.00 | 0.00 | 53 | 1015.7 |
| 20260901062020 | 87 | 0 | 0.0 | 3.0 | 0.00 | 0.00 | 0.00 | 53 | 1015.7 |
| 20260901061538 | 87 | 0 | 0.0 | 3.0 | 0.00 | 0.00 | 0.00 | 53 | 1015.6 |
| 20260901061020 | 87 | 0 | 0.0 | 4.0 | 0.00 | 0.00 | 0.00 | 52 | 1015.6 |
| 20260901060519 | 88 | 0 | 0.0 | 4.0 | 0.00 | 0.00 | 0.00 | 52 | 1015.5 |
| 20260901060035 | 87 | 0 | 0.0 | 4.0 | 0.00 | 0.00 | 0.00 | 52 | 1015.5 |
| 20260901055517 | 88 | 0 | 0.0 | 3.0 | 0.00 | 0.00 | 0.00 | 51 | 1015.5 |
| 20260901055017 | 88 | 0 | 0.0 | 5.0 | 0.00 | 0.00 | 0.00 | 51 | 1015.4 |
| 20260901054535 | 88 | 110 | 1.0 | 6.0 | 0.00 | 0.00 | 0.00 | 51 | 1015.3 |
| 20260901054019 | 88 | 0 | 0.0 | 7.0 | 0.00 | 0.00 | 0.00 | 51 | 1015.3 |
| 20260901053517 | 88 | 174 | 0.0 | 7.0 | 0.00 | 0.00 | 0.00 | 51 | 1015.3 |
| 20260901053039 | 88 | 123 | 1.0 | 8.0 | 0.00 | 0.00 | 0.00 | 50 | 1015.2 |
| 20260901052517 | 88 | 0 | 0.0 | 8.0 | 0.00 | 0.00 | 0.00 | 51 | 1015.1 |
| 20260901052019 | 88 | 0 | 0.0 | 4.0 | 0.00 | 0.00 | 0.00 | 50 | 1015.1 |
| 20260901051537 | 88 | 0 | 0.0 | 4.0 | 0.00 | 0.00 | 0.00 | 50 | 1015.2 |
| 20260901051020 | 87 | 0 | 0.0 | 4.0 | 0.00 | 0.00 | 0.00 | 50 | 1015.1 |
| 20260901050518 | 87 | 0 | 0.0 | 2.0 | 0.00 | 0.00 | 0.00 | 50 | 1015.1 |
| 20260901050037 | 88 | 0 | 0.0 | 2.0 | 0.00 | 0.00 | 0.00 | 49 | 1015.1 |
| 20260901045519 | 88 | 0 | 0.0 | 1.0 | 0.00 | 0.00 | 0.00 | 48 | 1015.0 |
| 20260901045020 | 88 | 0 | 0.0 | 2.0 | 0.00 | 0.00 | 0.00 | 48 | 1015.0 |
| 20260901044542 | 88 | 0 | 0.0 | 2.0 | 0.00 | 0.00 | 0.00 | 49 | 1015.0 |
| 20260901044018 | 87 | 0 | 0.0 | 2.0 | 0.00 | 0.00 | 0.00 | 49 | 1015.1 |
| 20260901043517 | 87 | 0 | 0.0 | 0.0 | 0.00 | 0.00 | 0.00 | 49 | 1015.0 |
| 20260901043042 | 87 | 0 | 0.0 | 0.0 | 0.00 | 0.00 | 0.00 | 48 | 1014.8 |
| 20260901042517 | 88 | 0 | 0.0 | 0.0 | 0.00 | 0.00 | 0.00 | 48 | 1014.8 |
| 20260901042022 | 88 | 0 | 0.0 | 1.0 | 0.00 | 0.00 | 0.00 | 47 | 1014.9 |
| 20260901041536 | 88 | 0 | 0.0 | 1.0 | 0.00 | 0.00 | 0.00 | 46 | 1014.9 |
| 20260901041018 | 89 | 0 | 0.0 | 1.0 | 0.00 | 0.00 | 0.00 | 46 | 1015.0 |
| 20260901040517 | 89 | 0 | 0.0 | 2.0 | 0.00 | 0.00 | 0.00 | 46 | 1014.8 |
| 20260901040044 | 89 | 184 | 0.0 | 2.0 | 0.00 | 0.00 | 0.00 | 45 | 1014.9 |
| 20260901035522 | 89 | 0 | 0.0 | 2.0 | 0.00 | 0.00 | 0.00 | 46 | 1014.8 |
| 20260901035019 | 89 | 184 | 0.0 | 1.0 | 0.00 | 0.00 | 0.00 | 46 | 1014.8 |
| 20260901034549 | 89 | 0 | 0.0 | 2.0 | 0.00 | 0.00 | 0.00 | 45 | 1014.8 |
| 20260901034018 | 89 | 0 | 0.0 | 2.0 | 0.00 | 0.00 | 0.00 | 46 | 1014.9 |
| 20260901033520 | 89 | 0 | 0.0 | 2.0 | 0.00 | 0.00 | 0.00 | 45 | 1014.9 |
| 20260901033055 | 89 | 184 | 0.0 | 1.0 | 0.00 | 0.00 | 0.00 | 45 | 1014.7 |
| 20260901032517 | 90 | 0 | 0.0 | 1.0 | 0.00 | 0.00 | 0.00 | 44 | 1014.8 |
| 20260901032017 | 90 | 0 | 0.0 | 2.0 | 0.00 | 0.00 | 0.00 | 45 | 1014.9 |
| 20260901031536 | 90 | 0 | 0.0 | 2.0 | 0.00 | 0.00 | 0.00 | 44 | 1014.8 |
| 20260901031019 | 90 | 0 | 0.0 | 1.0 | 0.00 | 0.00 | 0.00 | 46 | 1014.7 |
| 20260901030523 | 90 | 0 | 0.0 | 1.0 | 0.00 | 0.00 | 0.00 | 44 | 1014.7 |
| 20260901030037 | 90 | 0 | 0.0 | 1.0 | 0.00 | 0.00 | 0.00 | 44 | 1014.6 |
| 20260901025517 | 91 | 0 | 0.0 | 2.0 | 0.00 | 0.00 | 0.00 | 42 | 1014.5 |
| 20260901025017 | 91 | 0 | 0.0 | 2.0 | 0.00 | 0.00 | 0.00 | 42 | 1014.6 |
| 20260901024546 | 91 | 0 | 0.0 | 3.0 | 0.00 | 0.00 | 0.00 | 42 | 1014.6 |
| 20260901024018 | 91 | 0 | 0.0 | 3.0 | 0.00 | 0.00 | 0.00 | 42 | 1014.4 |
| 20260901023521 | 91 | 179 | 0.0 | 4.0 | 0.00 | 0.00 | 0.00 | 41 | 1014.3 |
| 20260901023038 | 92 | 0 | 0.0 | 4.0 | 0.00 | 0.00 | 0.00 | 41 | 1014.3 |
| 20260901022520 | 92 | 205 | 0.0 | 3.0 | 0.00 | 0.00 | 0.00 | 41 | 1014.2 |
| 20260901022021 | 92 | 0 | 0.0 | 3.0 | 0.00 | 0.00 | 0.00 | 40 | 1014.2 |
| 20260901021537 | 92 | 194 | 0.0 | 4.0 | 0.00 | 0.00 | 0.00 | 40 | 1014.1 |
| 20260901021017 | 92 | 192 | 0.0 | 4.0 | 0.00 | 0.00 | 0.00 | 41 | 1013.9 |
| 20260901020520 | 92 | 0 | 0.0 | 3.0 | 0.00 | 0.00 | 0.00 | 40 | 1013.9 |
| 20260901020038 | 92 | 0 | 0.0 | 3.0 | 0.00 | 0.00 | 0.00 | 39 | 1013.9 |
| 20260901015519 | 93 | 184 | 0.0 | 5.0 | 0.00 | 0.00 | 0.00 | 41 | 1013.9 |
| 20260901015023 | 93 | 0 | 0.0 | 6.0 | 0.00 | 0.00 | 0.00 | 39 | 1013.9 |
| 20260901014538 | 93 | 0 | 1.0 | 6.0 | 0.00 | 0.00 | 0.00 | 40 | 1013.9 |
| 20260901014019 | 93 | 0 | 0.0 | 7.0 | 0.00 | 0.00 | 0.00 | 39 | 1013.8 |
| 20260901013520 | 93 | 0 | 1.0 | 7.0 | 0.00 | 0.00 | 0.00 | 39 | 1013.9 |
| 20260901013035 | 93 | 243 | 1.0 | 6.0 | 0.00 | 0.00 | 0.00 | 40 | 1013.8 |
| 20260901012518 | 93 | 191 | 0.0 | 4.0 | 0.00 | 0.00 | 0.00 | 51 | 1013.8 |
| 20260901012021 | 94 | 0 | 0.0 | 5.0 | 0.00 | 0.00 | 0.00 | 45 | 1013.6 |
| 20260901011543 | 94 | 0 | 0.0 | 5.0 | 0.00 | 0.00 | 0.00 | 35 | 1013.6 |
| 20260901011019 | 95 | 0 | 0.0 | 5.0 | 0.00 | 0.00 | 0.00 | 34 | 1013.7 |
| 20260901010516 | 95 | 150 | 0.0 | 5.0 | 0.00 | 0.00 | 0.00 | 34 | 1013.6 |
| 20260901010044 | 95 | 0 | 0.0 | 5.0 | 0.00 | 0.00 | 0.00 | 33 | 1013.7 |
| 20260901005519 | 96 | 0 | 0.0 | 8.0 | 0.00 | 0.00 | 0.00 | 33 | 1013.7 |
| 20260901005024 | 96 | 0 | 1.0 | 8.0 | 0.00 | 0.00 | 0.00 | 33 | 1013.8 |
| 20260901004543 | 96 | 162 | 0.0 | 8.0 | 0.00 | 0.00 | 0.00 | 34 | 1013.7 |
| 20260901004020 | 96 | 188 | 3.0 | 8.0 | 0.00 | 0.00 | 0.00 | 33 | 1013.7 |
| 20260901003521 | 96 | 0 | 0.0 | 5.0 | 0.00 | 0.00 | 0.00 | 34 | 1013.6 |
| 20260901003044 | 97 | 0 | 2.0 | 5.0 | 0.00 | 0.00 | 0.00 | 34 | 1013.6 |
| 20260901002525 | 97 | 121 | 0.0 | 6.0 | 0.00 | 0.00 | 0.00 | 33 | 1013.6 |
| 20260901002020 | 97 | 156 | 1.0 | 6.0 | 0.00 | 0.00 | 0.00 | 33 | 1013.7 |
| 20260901001539 | 97 | 0 | 0.0 | 5.0 | 0.00 | 0.00 | 0.00 | 32 | 1013.6 |
| 20260901001019 | 97 | 177 | 0.0 | 5.0 | 0.00 | 0.00 | 0.00 | 32 | 1013.6 |
| 20260901000522 | 97 | 0 | 0.0 | 5.0 | 0.00 | 0.00 | 0.00 | 32 | 1013.6 |
| 20260901000038 | 97 | 194 | 1.0 | 9.0 | 0.00 | 0.00 | 0.00 | 31 | 1013.5 |
| 20260831235518 | 98 | 201 | 0.0 | 9.0 | 0.00 | 0.00 | 0.00 | 31 | 1013.5 |
| 20260831235016 | 98 | 190 | 1.0 | 8.0 | 0.00 | 0.00 | 0.00 | 31 | 1013.6 |
| 20260831234539 | 98 | 241 | 2.0 | 8.0 | 0.00 | 0.00 | 0.00 | 31 | 1013.7 |
| 20260831234018 | 98 | 200 | 2.0 | 9.0 | 0.00 | 0.00 | 0.00 | 31 | 1013.8 |
| 20260831233524 | 98 | 143 | 2.0 | 9.0 | 0.00 | 0.00 | 0.00 | 30 | 1013.7 |
| 20260831233041 | 98 | 104 | 1.0 | 6.0 | 0.00 | 0.00 | 0.00 | 31 | 1013.8 |
| 20260831232520 | 99 | 0 | 1.0 | 6.0 | 0.00 | 0.00 | 0.00 | 30 | 1013.8 |
| 20260831232019 | 99 | 0 | 0.0 | 6.0 | 0.00 | 0.00 | 0.00 | 31 | 1013.8 |
| 20260831231538 | 99 | 189 | 0.0 | 8.0 | 0.00 | 0.00 | 0.00 | 30 | 1013.7 |
| 20260831231024 | 99 | 198 | 1.0 | 8.0 | 0.00 | 0.00 | 0.00 | 30 | 1013.7 |
| 20260831230519 | 99 | 194 | 2.0 | 5.0 | 0.00 | 0.00 | 0.00 | 31 | 1013.7 |
| 20260831230036 | 100 | 0 | 0.0 | 4.0 | 0.00 | 0.00 | 0.00 | 30 | 1013.8 |
| 20260831225526 | 100 | 0 | 0.0 | 4.0 | 0.00 | 0.00 | 0.00 | 31 | 1013.8 |
| 20260831225021 | 99 | 61 | 0.0 | 7.0 | 0.00 | 0.00 | 0.00 | 31 | 1013.9 |
| 20260831224537 | 99 | 174 | 2.0 | 9.0 | 0.00 | 0.00 | 0.00 | 31 | 1013.9 |
| 20260831224020 | 99 | 0 | 2.0 | 13.0 | 0.00 | 0.00 | 0.00 | 31 | 1013.9 |
| 20260831223520 | 99 | 209 | 3.0 | 13.0 | 0.00 | 0.00 | 0.00 | 31 | 1013.9 |
| 20260831223040 | 99 | 198 | 3.0 | 12.0 | 0.00 | 0.00 | 0.00 | 32 | 1014.0 |
| 20260831222521 | 99 | 211 | 3.0 | 12.0 | 0.00 | 0.00 | 0.00 | 32 | 1014.1 |
| 20260831222022 | 100 | 202 | 2.0 | 6.0 | 0.00 | 0.00 | 0.00 | 31 | 1014.1 |
| 20260831221542 | 101 | 191 | 2.0 | 8.0 | 0.00 | 0.00 | 0.00 | 30 | 1014.1 |
| 20260831221017 | 101 | 94 | 2.0 | 8.0 | 0.00 | 0.00 | 0.00 | 30 | 1014.2 |
| 20260831220517 | 101 | 229 | 0.0 | 4.0 | 0.00 | 0.00 | 0.00 | 29 | 1014.2 |
| 20260831220038 | 101 | 0 | 0.0 | 4.0 | 0.00 | 0.00 | 0.00 | 31 | 1014.3 |
| 20260831215519 | 100 | 196 | 1.0 | 6.0 | 0.00 | 0.00 | 0.00 | 31 | 1014.4 |
| 20260831215020 | 101 | 0 | 0.0 | 10.0 | 0.00 | 0.00 | 0.00 | 31 | 1014.5 |
| 20260831214543 | 99 | 160 | 3.0 | 10.0 | 0.00 | 0.00 | 0.00 | 32 | 1014.5 |
| 20260831214020 | 98 | 0 | 3.0 | 10.0 | 0.00 | 0.00 | 0.00 | 32 | 1014.6 |
| 20260831213520 | 99 | 202 | 0.0 | 9.0 | 0.00 | 0.00 | 0.00 | 32 | 1014.6 |
| 20260831213043 | 99 | 231 | 3.0 | 11.0 | 0.00 | 0.00 | 0.00 | 32 | 1014.6 |
| 20260831212520 | 101 | 191 | 2.0 | 11.0 | 0.00 | 0.00 | 0.00 | 30 | 1014.6 |
| 20260831212020 | 101 | 108 | 2.0 | 8.0 | 0.00 | 0.00 | 0.00 | 30 | 1014.7 |
| 20260831211537 | 101 | 0 | 2.0 | 8.0 | 0.00 | 0.00 | 0.00 | 29 | 1014.6 |
| 20260831211020 | 101 | 252 | 0.0 | 11.0 | 0.00 | 0.00 | 0.00 | 29 | 1014.8 |
| 20260831210520 | 102 | 223 | 1.0 | 11.0 | 0.00 | 0.00 | 0.00 | 29 | 1014.8 |
| 20260831210039 | 103 | 210 | 2.0 | 8.0 | 0.00 | 0.00 | 0.00 | 28 | 1014.8 |
| 20260831205520 | 103 | 85 | 1.0 | 7.0 | 0.00 | 0.00 | 0.00 | 30 | 1015.0 |
| 20260831205021 | 102 | 177 | 2.0 | 8.0 | 0.00 | 0.00 | 0.00 | 31 | 1015.1 |
| 20260831204553 | 102 | 231 | 3.0 | 8.0 | 0.00 | 0.00 | 0.00 | 30 | 1015.0 |
| 20260831204020 | 102 | 0 | 1.0 | 6.0 | 0.00 | 0.00 | 0.00 | 30 | 1015.3 |
| 20260831203517 | 102 | 112 | 1.0 | 6.0 | 0.00 | 0.00 | 0.00 | 31 | 1015.3 |
| 20260831203055 | 101 | 150 | 2.0 | 6.0 | 0.00 | 0.00 | 0.00 | 32 | 1015.3 |
| 20260831202519 | 103 | 116 | 1.0 | 6.0 | 0.00 | 0.00 | 0.00 | 31 | 1015.4 |
| 20260831202018 | 103 | 102 | 2.0 | 6.0 | 0.00 | 0.00 | 0.00 | 32 | 1015.5 |
| 20260831201539 | 102 | 135 | 0.0 | 12.0 | 0.00 | 0.00 | 0.00 | 33 | 1015.4 |
| 20260831201022 | 101 | 192 | 5.0 | 12.0 | 0.00 | 0.00 | 0.00 | 31 | 1015.4 |
| 20260831200521 | 100 | 0 | 1.0 | 5.0 | 0.00 | 0.00 | 0.00 | 33 | 1015.4 |
| 20260831200041 | 101 | 112 | 0.0 | 7.0 | 0.00 | 0.00 | 0.00 | 33 | 1015.5 |
| 20260831195520 | 102 | 96 | 2.0 | 8.0 | 0.00 | 0.00 | 0.00 | 32 | 1015.7 |
| 20260831195024 | 101 | 140 | 1.0 | 9.0 | 0.00 | 0.00 | 0.00 | 30 | 1015.6 |
| 20260831194542 | 101 | 191 | 2.0 | 9.0 | 0.00 | 0.00 | 0.00 | 29 | 1015.8 |
| 20260831194019 | 101 | 195 | 2.0 | 9.0 | 0.00 | 0.00 | 0.00 | 31 | 1015.9 |
| 20260831193519 | 101 | 223 | 3.0 | 8.0 | 0.00 | 0.00 | 0.00 | 31 | 1016.0 |
| 20260831193039 | 101 | 0 | 1.0 | 5.0 | 0.00 | 0.00 | 0.00 | 32 | 1016.0 |
| 20260831192519 | 99 | 78 | 1.0 | 7.0 | 0.00 | 0.00 | 0.00 | 34 | 1016.1 |
| 20260831192019 | 99 | 141 | 3.0 | 12.0 | 0.00 | 0.00 | 0.00 | 33 | 1016.2 |
| 20260831191538 | 100 | 0 | 3.0 | 12.0 | 0.00 | 0.00 | 0.00 | 33 | 1016.0 |
| 20260831191022 | 101 | 222 | 4.0 | 9.0 | 0.00 | 0.00 | 0.00 | 33 | 1016.0 |
| 20260831190520 | 101 | 158 | 2.0 | 9.0 | 0.00 | 0.00 | 0.00 | 34 | 1016.0 |
| 20260831190054 | 99 | 112 | 4.0 | 9.0 | 0.00 | 0.00 | 0.00 | 35 | 1016.0 |
| 20260831185523 | 98 | 194 | 0.0 | 8.0 | 0.00 | 0.00 | 0.00 | 35 | 1016.0 |
| 20260831185019 | 98 | 0 | 0.0 | 12.0 | 0.00 | 0.00 | 0.00 | 34 | 1016.1 |
| 20260831184539 | 99 | 205 | 4.0 | 14.0 | 0.00 | 0.00 | 0.00 | 33 | 1016.2 |
| 20260831184019 | 98 | 183 | 4.0 | 14.0 | 0.00 | 0.00 | 0.00 | 36 | 1016.1 |
| 20260831183521 | 98 | 0 | 2.0 | 9.0 | 0.00 | 0.00 | 0.00 | 35 | 1016.3 |
| 20260831183039 | 99 | 204 | 4.0 | 9.0 | 0.00 | 0.00 | 0.00 | 35 | 1016.3 |
| 20260831182521 | 99 | 0 | 0.0 | 8.0 | 0.00 | 0.00 | 0.00 | 36 | 1016.3 |
| 20260831182018 | 98 | 207 | 3.0 | 8.0 | 0.00 | 0.00 | 0.00 | 36 | 1016.5 |
| 20260831181549 | 98 | 248 | 2.0 | 14.0 | 0.00 | 0.00 | 0.00 | 37 | 1016.6 |
| 20260831181020 | 97 | 161 | 1.0 | 14.0 | 0.00 | 0.00 | 0.00 | 38 | 1016.6 |
| 20260831180518 | 97 | 244 | 2.0 | 9.0 | 0.00 | 0.00 | 0.00 | 38 | 1016.8 |
| 20260831180037 | 97 | 181 | 4.0 | 9.0 | 0.00 | 0.00 | 0.00 | 39 | 1016.8 |
| 20260831175517 | 98 | 235 | 2.0 | 11.0 | 0.00 | 0.00 | 0.00 | 39 | 1016.8 |
| 20260831175019 | 97 | 94 | 1.0 | 11.0 | 0.00 | 0.00 | 0.00 | 40 | 1016.9 |
| 20260831174543 | 97 | 197 | 0.0 | 7.0 | 0.00 | 0.00 | 0.00 | 41 | 1017.2 |
| 20260831174022 | 96 | 170 | 4.0 | 7.0 | 0.00 | 0.00 | 0.00 | 41 | 1017.3 |
| 20260831173520 | 96 | 156 | 1.0 | 8.0 | 0.00 | 0.00 | 0.00 | 42 | 1017.4 |
| 20260831173036 | 95 | 0 | 3.0 | 8.0 | 0.00 | 0.00 | 0.00 | 42 | 1017.4 |
| 20260831172519 | 95 | 218 | 3.0 | 8.0 | 0.00 | 0.00 | 0.00 | 43 | 1017.5 |
| 20260831172018 | 96 | 0 | 3.0 | 8.0 | 0.00 | 0.00 | 0.00 | 42 | 1017.4 |
| 20260831171536 | 95 | 221 | 2.0 | 7.0 | 0.00 | 0.00 | 0.00 | 44 | 1017.4 |
| 20260831171022 | 95 | 0 | 1.0 | 8.0 | 0.00 | 0.00 | 0.00 | 45 | 1017.5 |
| 20260831170519 | 95 | 0 | 2.0 | 8.0 | 0.00 | 0.00 | 0.00 | 44 | 1017.5 |
| 20260831170039 | 94 | 149 | 1.0 | 8.0 | 0.00 | 0.00 | 0.00 | 45 | 1017.5 |
| 20260831165524 | 94 | 226 | 3.0 | 8.0 | 0.00 | 0.00 | 0.00 | 46 | 1017.5 |
| 20260831165020 | 95 | 0 | 2.0 | 8.0 | 0.00 | 0.00 | 0.00 | 45 | 1017.4 |
| 20260831164538 | 95 | 210 | 1.0 | 8.0 | 0.00 | 0.00 | 0.00 | 46 | 1017.3 |
| 20260831164021 | 94 | 123 | 2.0 | 8.0 | 0.00 | 0.00 | 0.00 | 47 | 1017.1 |
| 20260831163520 | 94 | 215 | 2.0 | 7.0 | 0.00 | 0.00 | 0.00 | 47 | 1017.2 |
| 20260831163036 | 94 | 0 | 1.0 | 8.0 | 0.00 | 0.00 | 0.00 | 47 | 1017.3 |
| 20260831162521 | 93 | 183 | 2.0 | 9.0 | 0.00 | 0.00 | 0.00 | 47 | 1017.4 |
| 20260831162020 | 93 | 288 | 1.0 | 9.0 | 0.00 | 0.00 | 0.00 | 48 | 1017.5 |
| 20260831161535 | 93 | 167 | 1.0 | 7.0 | 0.00 | 0.00 | 0.00 | 49 | 1017.4 |
| 20260831161018 | 92 | 201 | 2.0 | 7.0 | 0.00 | 0.00 | 0.00 | 48 | 1017.6 |
| 20260831160518 | 92 | 223 | 1.0 | 8.0 | 0.00 | 0.00 | 0.00 | 48 | 1017.5 |
| 20260831160058 | 91 | 209 | 2.0 | 8.0 | 0.00 | 0.00 | 0.00 | 49 | 1017.5 |
| 20260831155520 | 91 | 0 | 3.0 | 9.0 | 0.00 | 0.00 | 0.00 | 49 | 1017.5 |
| 20260831155020 | 91 | 0 | 2.0 | 9.0 | 0.00 | 0.00 | 0.00 | 49 | 1017.5 |
| 20260831154604 | 91 | 208 | 0.0 | 5.0 | 0.00 | 0.00 | 0.00 | 51 | 1017.5 |
| 20260831154025 | 91 | 235 | 2.0 | 8.0 | 0.00 | 0.00 | 0.00 | 50 | 1017.6 |
| 20260831153517 | 90 | 0 | 3.0 | 10.0 | 0.00 | 0.00 | 0.00 | 52 | 1017.6 |
| 20260831153113 | 90 | 210 | 3.0 | 10.0 | 0.00 | 0.00 | 0.00 | 52 | 1017.4 |
| 20260831152517 | 90 | 220 | 1.0 | 5.0 | 0.00 | 0.00 | 0.00 | 53 | 1017.4 |
| 20260831152020 | 89 | 0 | 0.0 | 6.0 | 0.00 | 0.00 | 0.00 | 54 | 1017.3 |
| 20260831151536 | 89 | 202 | 0.0 | 6.0 | 0.00 | 0.00 | 0.00 | 54 | 1017.4 |
| 20260831151018 | 88 | 205 | 0.0 | 5.0 | 0.00 | 0.00 | 0.00 | 55 | 1017.5 |
| 20260831150520 | 88 | 0 | 0.0 | 8.0 | 0.00 | 0.00 | 0.00 | 55 | 1017.3 |
| 20260831150038 | 88 | 233 | 1.0 | 8.0 | 0.00 | 0.00 | 0.00 | 55 | 1017.2 |
| 20260831145519 | 87 | 0 | 2.0 | 7.0 | 0.00 | 0.00 | 0.00 | 55 | 1017.2 |
| 20260831145022 | 87 | 0 | 1.0 | 7.0 | 0.00 | 0.00 | 0.00 | 57 | 1017.2 |
| 20260831144537 | 86 | 0 | 0.0 | 4.0 | 0.00 | 0.00 | 0.00 | 59 | 1017.3 |
| 20260831144017 | 86 | 205 | 0.0 | 5.0 | 0.00 | 0.00 | 0.00 | 60 | 1017.3 |
| 20260831143517 | 85 | 216 | 1.0 | 6.0 | 0.00 | 0.00 | 0.00 | 61 | 1017.3 |
| 20260831143039 | 85 | 222 | 1.0 | 6.0 | 0.00 | 0.00 | 0.00 | 61 | 1017.3 |
| 20260831142518 | 85 | 0 | 0.0 | 3.0 | 0.00 | 0.00 | 0.00 | 63 | 1017.2 |
| 20260831142018 | 85 | 200 | 0.0 | 2.0 | 0.00 | 0.00 | 0.00 | 64 | 1017.3 |
| 20260831141544 | 84 | 0 | 0.0 | 3.0 | 0.00 | 0.00 | 0.00 | 65 | 1017.1 |
| 20260831141022 | 84 | 0 | 0.0 | 3.0 | 0.00 | 0.00 | 0.00 | 65 | 1017.1 |
| 20260831140521 | 84 | 222 | 0.0 | 3.0 | 0.00 | 0.00 | 0.00 | 67 | 1017.2 |
| 20260831140043 | 83 | 0 | 0.0 | 4.0 | 0.00 | 0.00 | 0.00 | 67 | 1017.1 |
| 20260831135519 | 83 | 0 | 1.0 | 4.0 | 0.00 | 0.00 | 0.00 | 67 | 1017.1 |
| 20260831135024 | 83 | 210 | 0.0 | 6.0 | 0.00 | 0.00 | 0.00 | 67 | 1016.9 |
| 20260831134538 | 83 | 209 | 0.0 | 6.0 | 0.00 | 0.00 | 0.00 | 68 | 1017.1 |
| 20260831134019 | 83 | 0 | 1.0 | 6.0 | 0.00 | 0.00 | 0.00 | 68 | 1017.1 |
| 20260831133519 | 82 | 0 | 1.0 | 5.0 | 0.00 | 0.00 | 0.00 | 68 | 1017.1 |
| 20260831133039 | 82 | 202 | 1.0 | 5.0 | 0.00 | 0.00 | 0.00 | 68 | 1016.8 |
| 20260831132520 | 82 | 0 | 1.0 | 3.0 | 0.00 | 0.00 | 0.00 | 68 | 1016.8 |
| 20260831132018 | 82 | 0 | 0.0 | 5.0 | 0.00 | 0.00 | 0.00 | 68 | 1016.7 |
| 20260831131539 | 82 | 0 | 0.0 | 6.0 | 0.00 | 0.00 | 0.00 | 68 | 1016.7 |
| 20260831131020 | 82 | 211 | 1.0 | 6.0 | 0.00 | 0.00 | 0.00 | 69 | 1016.6 |
| 20260831130519 | 82 | 150 | 1.0 | 5.0 | 0.00 | 0.00 | 0.00 | 70 | 1016.6 |
| 20260831130044 | 81 | 0 | 0.0 | 3.0 | 0.00 | 0.00 | 0.00 | 70 | 1016.4 |
| 20260831125520 | 81 | 210 | 0.0 | 5.0 | 0.00 | 0.00 | 0.00 | 70 | 1016.4 |
| 20260831125021 | 81 | 209 | 0.0 | 5.0 | 0.00 | 0.00 | 0.00 | 70 | 1016.3 |
| 20260831124537 | 81 | 206 | 0.0 | 4.0 | 0.00 | 0.00 | 0.00 | 70 | 1016.3 |
| 20260831124020 | 81 | 0 | 0.0 | 5.0 | 0.00 | 0.00 | 0.00 | 70 | 1016.1 |
| 20260831123519 | 81 | 0 | 0.0 | 5.0 | 0.00 | 0.00 | 0.00 | 70 | 1016.1 |
| 20260831123047 | 81 | 0 | 0.0 | 4.0 | 0.00 | 0.00 | 0.00 | 71 | 1016.0 |
| 20260831122524 | 81 | 166 | 0.0 | 2.0 | 0.00 | 0.00 | 0.00 | 71 | 1015.9 |
| 20260831122017 | 80 | 0 | 0.0 | 3.0 | 0.00 | 0.00 | 0.00 | 72 | 1015.9 |
| 20260831121541 | 80 | 0 | 0.0 | 3.0 | 0.00 | 0.00 | 0.00 | 72 | 1015.8 |
| 20260831121018 | 80 | 0 | 0.0 | 1.0 | 0.00 | 0.00 | 0.00 | 72 | 1015.7 |
| 20260831120522 | 80 | 0 | 0.0 | 1.0 | 0.00 | 0.00 | 0.00 | 71 | 1015.7 |
| 20260831120111 | 81 | 0 | 0.0 | 3.0 | 0.00 | 0.00 | 0.00 | 71 | 1015.6 |
| 20260831115524 | 80 | 0 | 0.0 | 3.0 | 0.00 | 0.00 | 0.00 | 71 | 1015.5 |
| 20260831115027 | 81 | 0 | 0.0 | 1.0 | 0.00 | 0.00 | 0.00 | 70 | 1015.5 |
| 20260831114539 | 81 | 0 | 0.0 | 2.0 | 0.00 | 0.00 | 0.00 | 70 | 1015.5 |
| 20260831114020 | 81 | 0 | 0.0 | 2.0 | 0.00 | 0.00 | 0.00 | 70 | 1015.3 |
| 20260831113517 | 81 | 0 | 0.0 | 2.0 | 0.00 | 0.00 | 0.00 | 70 | 1015.3 |
| 20260831113039 | 81 | 0 | 0.0 | 2.0 | 0.00 | 0.00 | 0.00 | 70 | 1015.2 |
| 20260831112518 | 81 | 0 | 0.0 | 2.0 | 0.00 | 0.00 | 0.00 | 69 | 1015.2 |
| 20260831112019 | 81 | 206 | 0.0 | 1.0 | 0.00 | 0.00 | 0.00 | 69 | 1015.2 |
| 20260831111545 | 82 | 0 | 0.0 | 2.0 | 0.00 | 0.00 | 0.00 | 69 | 1015.1 |
| 20260831111019 | 82 | 0 | 0.0 | 3.0 | 0.00 | 0.00 | 0.00 | 69 | 1015.1 |
| 20260831110524 | 82 | 0 | 0.0 | 3.0 | 0.00 | 0.00 | 0.00 | 69 | 1015.0 |
| 20260831110038 | 82 | 0 | 0.0 | 1.0 | 0.00 | 0.00 | 0.00 | 68 | 1015.0 |
| 20260831105518 | 83 | 0 | 0.0 | 1.0 | 0.00 | 0.00 | 0.00 | 68 | 1015.0 |
| 20260831105019 | 83 | 0 | 0.0 | 1.0 | 0.00 | 0.00 | 0.00 | 68 | 1015.0 |
| 20260831104540 | 83 | 0 | 0.0 | 5.0 | 0.00 | 0.00 | 0.00 | 67 | 1014.9 |
| 20260831104020 | 83 | 0 | 0.0 | 5.0 | 0.00 | 0.00 | 0.00 | 67 | 1014.9 |
| 20260831103519 | 83 | 0 | 0.0 | 1.0 | 0.00 | 0.00 | 0.00 | 67 | 1014.9 |
| 20260831103045 | 83 | 0 | 0.0 | 2.0 | 0.00 | 0.00 | 0.00 | 67 | 1014.9 |
| 20260831102517 | 83 | 0 | 0.0 | 2.0 | 0.00 | 0.00 | 0.00 | 67 | 1014.9 |
| 20260831102019 | 83 | 0 | 0.0 | 2.0 | 0.00 | 0.00 | 0.00 | 66 | 1015.0 |
| 20260831101538 | 83 | 0 | 0.0 | 0.0 | 0.00 | 0.00 | 0.00 | 66 | 1015.0 |
| 20260831101018 | 84 | 0 | 0.0 | 0.0 | 0.00 | 0.00 | 0.00 | 65 | 1014.9 |
| 20260831100518 | 84 | 0 | 0.0 | 0.0 | 0.00 | 0.00 | 0.00 | 65 | 1014.9 |
| 20260831100044 | 84 | 0 | 0.0 | 4.0 | 0.00 | 0.00 | 0.00 | 64 | 1015.0 |
| 20260831095520 | 84 | 0 | 0.0 | 4.0 | 0.00 | 0.00 | 0.00 | 64 | 1014.9 |
| 20260831095020 | 85 | 224 | 0.0 | 4.0 | 0.00 | 0.00 | 0.00 | 63 | 1014.9 |
| 20260831094538 | 85 | 0 | 0.0 | 7.0 | 0.00 | 0.00 | 0.00 | 63 | 1014.9 |
| 20260831094022 | 85 | 219 | 1.0 | 7.0 | 0.00 | 0.00 | 0.00 | 62 | 1014.8 |
| 20260831093520 | 85 | 173 | 0.0 | 7.0 | 0.00 | 0.00 | 0.00 | 62 | 1014.8 |
| 20260831093041 | 85 | 223 | 1.0 | 7.0 | 0.00 | 0.00 | 0.00 | 61 | 1014.9 |
| 20260831092518 | 85 | 0 | 0.0 | 6.0 | 0.00 | 0.00 | 0.00 | 61 | 1014.8 |
| 20260831092018 | 85 | 0 | 0.0 | 6.0 | 0.00 | 0.00 | 0.00 | 61 | 1014.6 |
| 20260831091537 | 85 | 0 | 0.0 | 6.0 | 0.00 | 0.00 | 0.00 | 60 | 1014.6 |
| 20260831091020 | 85 | 203 | 0.0 | 3.0 | 0.00 | 0.00 | 0.00 | 60 | 1014.5 |
| 20260831090522 | 85 | 0 | 0.0 | 5.0 | 0.00 | 0.00 | 0.00 | 59 | 1014.5 |
| 20260831090036 | 85 | 216 | 1.0 | 6.0 | 0.00 | 0.00 | 0.00 | 59 | 1014.4 |
| 20260831085520 | 85 | 0 | 1.0 | 6.0 | 0.00 | 0.00 | 0.00 | 59 | 1014.4 |
| 20260831085020 | 85 | 0 | 0.0 | 6.0 | 0.00 | 0.00 | 0.00 | 58 | 1014.4 |
| 20260831084545 | 85 | 218 | 1.0 | 8.0 | 0.00 | 0.00 | 0.00 | 58 | 1014.4 |
| 20260831084019 | 85 | 0 | 1.0 | 8.0 | 0.00 | 0.00 | 0.00 | 57 | 1014.3 |
| 20260831083519 | 85 | 208 | 0.0 | 1.0 | 0.00 | 0.00 | 0.00 | 57 | 1014.3 |
| 20260831083041 | 85 | 0 | 0.0 | 1.0 | 0.00 | 0.00 | 0.00 | 56 | 1014.4 |
| 20260831082518 | 85 | 0 | 0.0 | 2.0 | 0.00 | 0.00 | 0.00 | 56 | 1014.3 |
| 20260831082016 | 85 | 0 | 0.0 | 2.0 | 0.00 | 0.00 | 0.00 | 55 | 1014.4 |
| 20260831081545 | 86 | 208 | 0.0 | 2.0 | 0.00 | 0.00 | 0.00 | 55 | 1014.4 |
| 20260831081017 | 86 | 0 | 0.0 | 4.0 | 0.00 | 0.00 | 0.00 | 54 | 1014.4 |
| 20260831080517 | 86 | 0 | 0.0 | 7.0 | 0.00 | 0.00 | 0.00 | 53 | 1014.4 |
| 20260831080036 | 87 | 216 | 1.0 | 8.0 | 0.00 | 0.00 | 0.00 | 53 | 1014.4 |
| 20260831075519 | 87 | 155 | 2.0 | 11.0 | 0.00 | 0.00 | 0.00 | 53 | 1014.4 |
| 20260831075020 | 87 | 204 | 3.0 | 11.0 | 0.00 | 0.00 | 0.00 | 53 | 1014.3 |
| 20260831074538 | 86 | 218 | 3.0 | 10.0 | 0.00 | 0.00 | 0.00 | 53 | 1014.3 |
| 20260831074018 | 85 | 183 | 2.0 | 10.0 | 0.00 | 0.00 | 0.00 | 54 | 1014.3 |
| 20260831073517 | 84 | 0 | 0.0 | 1.0 | 0.00 | 0.00 | 0.00 | 55 | 1014.3 |
| 20260831073036 | 84 | 0 | 0.0 | 2.0 | 0.00 | 0.00 | 0.00 | 57 | 1014.4 |
| 20260831072519 | 84 | 0 | 0.0 | 2.0 | 0.00 | 0.00 | 0.00 | 57 | 1014.3 |
| 20260831072017 | 84 | 0 | 0.0 | 1.0 | 0.00 | 0.00 | 0.00 | 57 | 1014.3 |
| 20260831071537 | 84 | 0 | 0.0 | 0.0 | 0.00 | 0.00 | 0.00 | 56 | 1014.3 |
| 20260831071021 | 85 | 0 | 0.0 | 0.0 | 0.00 | 0.00 | 0.00 | 54 | 1014.3 |
| 20260831070517 | 85 | 0 | 0.0 | 2.0 | 0.00 | 0.00 | 0.00 | 54 | 1014.3 |
| 20260831070105 | 85 | 0 | 0.0 | 2.0 | 0.00 | 0.00 | 0.00 | 54 | 1014.3 |
| 20260831065522 | 85 | 215 | 0.0 | 1.0 | 0.00 | 0.00 | 0.00 | 54 | 1014.4 |
| 20260831065018 | 85 | 0 | 0.0 | 1.0 | 0.00 | 0.00 | 0.00 | 54 | 1014.4 |
| 20260831064541 | 85 | 0 | 0.0 | 1.0 | 0.00 | 0.00 | 0.00 | 54 | 1014.4 |
| 20260831064017 | 85 | 0 | 0.0 | 1.0 | 0.00 | 0.00 | 0.00 | 54 | 1014.4 |